When you browse on this site, cookies collect data to enhance your experience and personalize the content and advertising you see.
Visit our Privacy Policy to learn more. By continuing to use the site, you agree to this use of cookies and data.
  • In Portugal
  • List of Countries
  • For 7 days
  • Water Temperature
  • Weather Map
  • Weather Widgets
  • user-avatar
    Login

    Hourly Weather Burhimahi

    Today, 23 September, Monday

    Time Temperature Precipitation Wind Pressure Humidity
    00:00 +6°C° 0 mm 1 mps 663 mmHg 68%
    01:00 +6°C° 0 mm 1 mps 663 mmHg 67%
    02:00 +5°C° 0 mm 2 mps 663 mmHg 65%
    03:00 +5°C° 0 mm 2 mps 663 mmHg 61%
    04:00 +5°C° 0 mm 2 mps 663 mmHg 61%
    05:00 +5°C° 0 mm 2 mps 663 mmHg 61%
    06:00 +6°C° 0 mm 1 mps 663 mmHg 61%
    07:00 +8°C° 0 mm 1 mps 663 mmHg 55%
    08:00 +10°C° 0 mm 2 mps 664 mmHg 50%
    09:00 +13°C° 0 mm 2 mps 665 mmHg 41%
    10:00 +14°C° 0 mm 2 mps 665 mmHg 41%
    11:00 +14°C° 0 mm 2 mps 664 mmHg 40%
    12:00 +14°C° 0 mm 3 mps 664 mmHg 40%
    13:00 +14°C° 0 mm 3 mps 664 mmHg 42%
    14:00 +14°C° 0 mm 3 mps 664 mmHg 44%
    15:00 +13°C° 0 mm 3 mps 663 mmHg 46%
    16:00 +13°C° 0 mm 2 mps 663 mmHg 53%
    17:00 +11°C° 0 mm 1 mps 662 mmHg 61%
    18:00 +9°C° 0 mm 1 mps 662 mmHg 68%
    19:00 +9°C° 0 mm 1 mps 662 mmHg 68%
    20:00 +9°C° 0 mm 1 mps 663 mmHg 67%
    21:00 +8°C° 0 mm 1 mps 663 mmHg 67%
    22:00 +8°C° 0 mm 1 mps 663 mmHg 67%
    23:00 +8°C° 0 mm 1 mps 663 mmHg 67%

    Tomorrow, 24 September, Tuesday

    Time Temperature Precipitation Wind Pressure Humidity
    00:00 +7°C° 0 mm 2 mps 662 mmHg 67%
    01:00 +7°C° 0 mm 2 mps 662 mmHg 66%
    02:00 +7°C° 0 mm 2 mps 662 mmHg 65%
    03:00 +7°C° 0 mm 2 mps 662 mmHg 65%
    04:00 +8°C° 0 mm 1 mps 662 mmHg 64%
    05:00 +8°C° 0 mm 1 mps 662 mmHg 63%
    06:00 +7°C° 0 mm 1 mps 662 mmHg 62%
    07:00 +9°C° 0 mm 2 mps 663 mmHg 55%
    08:00 +12°C° 0 mm 2 mps 664 mmHg 47%
    09:00 +14°C° 0 mm 2 mps 664 mmHg 40%
    10:00 +14°C° 0 mm 3 mps 664 mmHg 41%
    11:00 +16°C° 0 mm 3 mps 664 mmHg 42%
    12:00 +17°C° 0 mm 3 mps 664 mmHg 44%
    13:00 +16°C° 0 mm 3 mps 663 mmHg 48%
    14:00 +16°C° 0 mm 3 mps 663 mmHg 53%
    15:00 +16°C° 0 mm 3 mps 663 mmHg 57%
    16:00 +14°C° 0 mm 2 mps 662 mmHg 67%
    17:00 +12°C° 0 mm 1 mps 662 mmHg 77%
    18:00 +11°C° 0 mm 1 mps 661 mmHg 87%
    19:00 +10°C° 0 mm 1 mps 661 mmHg 86%
    20:00 +10°C° 0 mm 1 mps 662 mmHg 84%
    21:00 +10°C° 0 mm 1 mps 662 mmHg 82%
    22:00 +10°C° 0 mm 1 mps 661 mmHg 80%
    23:00 +10°C° 0 mm 1 mps 661 mmHg 78%

    Day after tomorrow, 25 September, Wednesday

    Time Temperature Precipitation Wind Pressure Humidity
    00:00 +10°C° 0 mm 1 mps 661 mmHg 76%
    01:00 +10°C° 0 mm 1 mps 661 mmHg 74%
    02:00 +10°C° 0 mm 1 mps 661 mmHg 71%
    03:00 +9°C° 0 mm 0 mps 661 mmHg 69%
    04:00 +10°C° 0 mm 1 mps 661 mmHg 70%
    05:00 +9°C° 0 mm 1 mps 660 mmHg 71%
    06:00 +9°C° 0 mm 1 mps 660 mmHg 72%
    07:00 +11°C° 0 mm 1 mps 661 mmHg 67%
    08:00 +13°C° 0 mm 2 mps 662 mmHg 63%
    09:00 +15°C° 0 mm 2 mps 663 mmHg 59%
    10:00 +14°C° 0 mm 3 mps 663 mmHg 61%
    11:00 +16°C° 0 mm 3 mps 663 mmHg 62%
    12:00 +16°C° 0 mm 3 mps 663 mmHg 64%
    13:00 +14°C° 0 mm 3 mps 663 mmHg 69%
    14:00 +14°C° 0 mm 3 mps 662 mmHg 75%
    15:00 +14°C° 0 mm 2 mps 662 mmHg 80%
    16:00 +13°C° 0 mm 2 mps 662 mmHg 83%
    17:00 +12°C° 0 mm 1 mps 662 mmHg 87%
    18:00 +12°C° 0 mm 1 mps 662 mmHg 90%
    19:00 +11°C° 0 mm 1 mps 662 mmHg 91%
    20:00 +11°C° 0 mm 1 mps 663 mmHg 92%
    21:00 +11°C° 0 mm 1 mps 663 mmHg 93%
    22:00 +10°C° 0 mm 1 mps 663 mmHg 91%
    23:00 +10°C° 0 mm 1 mps 662 mmHg 89%

    26 September, Thursday

    Time Temperature Precipitation Wind Pressure Humidity
    00:00 +10°C° 0 mm 1 mps 662 mmHg 87%
    01:00 +10°C° 0 mm 1 mps 662 mmHg 85%
    02:00 +10°C° 0 mm 1 mps 662 mmHg 83%
    03:00 +11°C° 0 mm 1 mps 662 mmHg 81%
    04:00 +11°C° 0 mm 1 mps 662 mmHg 78%
    05:00 +11°C° 0 mm 1 mps 662 mmHg 76%
    06:00 +11°C° 0 mm 1 mps 662 mmHg 73%
    07:00 +12°C° 0 mm 1 mps 662 mmHg 69%
    08:00 +14°C° 0 mm 2 mps 663 mmHg 65%
    09:00 +15°C° 0 mm 2 mps 663 mmHg 61%
    10:00 +16°C° 0 mm 2 mps 663 mmHg 59%
    11:00 +17°C° 0 mm 3 mps 663 mmHg 57%
    12:00 +18°C° 0 mm 3 mps 663 mmHg 54%
    13:00 +18°C° 0 mm 3 mps 663 mmHg 58%
    14:00 +17°C° 0 mm 3 mps 663 mmHg 62%
    15:00 +17°C° 0 mm 3 mps 662 mmHg 65%
    16:00 +16°C° 0 mm 2 mps 662 mmHg 73%
    17:00 +14°C° 0 mm 1 mps 662 mmHg 81%
    18:00 +13°C° 0 mm 1 mps 662 mmHg 89%
    19:00 +12°C° 0 mm 1 mps 662 mmHg 90%
    20:00 +11°C° 0 mm 0 mps 662 mmHg 91%
    21:00 +10°C° 0 mm 0 mps 662 mmHg 93%
    22:00 +10°C° 0 mm 0 mps 662 mmHg 92%
    23:00 +10°C° 0 mm 0 mps 662 mmHg 91%

    27 September, Friday

    Time Temperature Precipitation Wind Pressure Humidity
    00:00 +11°C° 0 mm 1 mps 662 mmHg 90%
    01:00 +11°C° 0 mm 1 mps 662 mmHg 89%
    02:00 +10°C° 0 mm 1 mps 661 mmHg 88%
    03:00 +10°C° 0 mm 1 mps 661 mmHg 87%
    04:00 +10°C° 0 mm 1 mps 661 mmHg 86%
    05:00 +10°C° 0 mm 1 mps 661 mmHg 85%
    06:00 +10°C° 0 mm 1 mps 661 mmHg 84%
    07:00 +12°C° 0 mm 1 mps 662 mmHg 77%
    08:00 +13°C° 0 mm 2 mps 662 mmHg 70%
    09:00 +15°C° 0 mm 2 mps 663 mmHg 63%
    10:00 +16°C° 0 mm 3 mps 663 mmHg 61%
    11:00 +17°C° 0 mm 3 mps 663 mmHg 58%
    12:00 +18°C° 0 mm 3 mps 663 mmHg 56%
    13:00 +18°C° 0 mm 3 mps 663 mmHg 58%
    14:00 +17°C° 0 mm 3 mps 662 mmHg 60%
    15:00 +17°C° 0 mm 3 mps 662 mmHg 63%
    16:00 +16°C° 0 mm 2 mps 661 mmHg 70%
    17:00 +14°C° 0 mm 2 mps 661 mmHg 78%
    18:00 +12°C° 0 mm 1 mps 661 mmHg 86%
    19:00 +12°C° 0 mm 1 mps 661 mmHg 85%
    20:00 +12°C° 0 mm 1 mps 661 mmHg 84%
    21:00 +12°C° 0 mm 1 mps 661 mmHg 83%
    22:00 +12°C° 0 mm 1 mps 661 mmHg 82%
    23:00 +12°C° 0 mm 1 mps 661 mmHg 81%

    28 September, Saturday

    Time Temperature Precipitation Wind Pressure Humidity
    00:00 +11°C° 0 mm 0 mps 661 mmHg 81%
    01:00 +11°C° 0 mm 0 mps 661 mmHg 81%
    02:00 +11°C° 0 mm 0 mps 660 mmHg 82%
    03:00 +10°C° 0 mm 0 mps 660 mmHg 83%
    04:00 +10°C° 0 mm 0 mps 660 mmHg 83%
    05:00 +11°C° 0 mm 1 mps 659 mmHg 83%
    06:00 +11°C° 0 mm 1 mps 659 mmHg 83%
    07:00 +13°C° 0 mm 1 mps 660 mmHg 75%
    08:00 +15°C° 0 mm 2 mps 660 mmHg 66%
    09:00 +17°C° 0 mm 2 mps 660 mmHg 57%
    10:00 +17°C° 0 mm 3 mps 661 mmHg 57%
    11:00 +17°C° 0 mm 3 mps 661 mmHg 57%
    12:00 +17°C° 0 mm 4 mps 662 mmHg 57%
    13:00 +14°C° 1.5 mm 3 mps 661 mmHg 69%
    14:00 +12°C° 1.5 mm 3 mps 661 mmHg 81%
    15:00 +10°C° 1.5 mm 3 mps 661 mmHg 93%
    16:00 +10°C° 0.5 mm 2 mps 661 mmHg 93%
    17:00 +10°C° 0.5 mm 2 mps 661 mmHg 94%
    18:00 +10°C° 0.5 mm 1 mps 662 mmHg 94%
    19:00 +10°C° 0.1 mm 1 mps 662 mmHg 94%
    20:00 +10°C° 0.1 mm 1 mps 662 mmHg 94%
    21:00 +10°C° 0.1 mm 1 mps 663 mmHg 94%
    22:00 +10°C° 0 mm 1 mps 663 mmHg 94%
    23:00 +10°C° 0 mm 1 mps 663 mmHg 95%
    Show more